This is the latest recevied weather packets stored in our database for station/object IW1CBG-3. If no packets are shown the sender has not sent any weather packets the latest 10 day(s).
| Time | Temp. | Humidity | Pressure | Rain* | Wind** | Luminosity | Snow |
|---|---|---|---|---|---|---|---|
| 1777472438 | 20° C | 54% | 1025 hPa | 0 mm | - | - | - |
| 1777471838 | 20° C | 52% | 1025.1 hPa | 0 mm | - | - | - |
| 1777471237 | 19.44° C | 53% | 1025.2 hPa | 0 mm | - | - | - |
| 1777470638 | 19.44° C | 55% | 1024.8 hPa | 0 mm | - | - | - |
| 1777470037 | 18.89° C | 55% | 1025.7 hPa | 0 mm | - | - | - |
| 1777469438 | 20° C | 55% | 1025.3 hPa | 0 mm | - | - | - |
| 1777468837 | 19.44° C | 55% | 1025.6 hPa | 0 mm | - | - | - |
| 1777468238 | 18.89° C | 57% | 1025.7 hPa | 0 mm | - | - | - |
| 1777467637 | 19.44° C | 57% | 1025.8 hPa | 0 mm | - | - | - |
| 1777467038 | 19.44° C | 55% | 1025.8 hPa | 0 mm | - | - | - |
| 1777466437 | 18.89° C | 56% | 1026 hPa | 0 mm | - | - | - |
| 1777465838 | 18.33° C | 61% | 1026 hPa | 0 mm | - | - | - |
| 1777465237 | 18.89° C | 62% | 1026.3 hPa | 0 mm | - | - | - |
| 1777464639 | 18.33° C | 62% | 1026.4 hPa | 0 mm | - | - | - |
| 1777464038 | 17.78° C | 63% | 1026.5 hPa | 0 mm | - | - | - |
| 1777463438 | 18.33° C | 63% | 1026.4 hPa | 0 mm | - | - | - |
| 1777462838 | 18.33° C | 61% | 1026.3 hPa | 0 mm | - | - | - |
| 1777462238 | 18.33° C | 63% | 1026.5 hPa | 0 mm | - | - | - |
| 1777461638 | 18.33° C | 61% | 1026.3 hPa | 0 mm | - | - | - |
| 1777461038 | 18.33° C | 61% | 1026.4 hPa | 0 mm | - | - | - |
| 1777460438 | 17.78° C | 63% | 1026.5 hPa | 0 mm | - | - | - |
| 1777459838 | 18.33° C | 62% | 1026.6 hPa | 0 mm | - | - | - |
| 1777459238 | 17.78° C | 64% | 1026.7 hPa | 0 mm | - | - | - |
| 1777458637 | 17.78° C | 66% | 1026.6 hPa | 0 mm | - | - | - |
| 1777458038 | 17.22° C | 64% | 1026.7 hPa | 0 mm | - | - | - |
* Rain latest hour (hover to see other rain measurements)
** Current wind speed in m/s (hover to see current wind gust speed)